Year,Month,Day,Hour,Minute,Value (Times are PST for temperature in C)
2019,03,19,00,00,8.00
2019,03,19,00,01,8.00
2019,03,19,00,02,8.00
2019,03,19,00,03,8.00
2019,03,19,00,04,8.00
2019,03,19,00,05,7.90
2019,03,19,00,06,7.90
2019,03,19,00,07,7.90
2019,03,19,00,08,7.90
2019,03,19,00,09,7.90
2019,03,19,00,10,7.90
2019,03,19,00,11,8.00
2019,03,19,00,12,8.00
2019,03,19,00,13,8.00
2019,03,19,00,14,8.00
2019,03,19,00,15,8.00
2019,03,19,00,16,7.90
2019,03,19,00,17,7.90
2019,03,19,00,18,7.90
2019,03,19,00,19,7.80
2019,03,19,00,20,7.80
2019,03,19,00,21,7.80
2019,03,19,00,22,7.80
2019,03,19,00,23,7.70
2019,03,19,00,24,7.70
2019,03,19,00,25,7.70
2019,03,19,00,26,7.70
2019,03,19,00,27,7.70
2019,03,19,00,28,7.80
2019,03,19,00,29,7.80
2019,03,19,00,30,7.80
2019,03,19,00,31,7.80
2019,03,19,00,32,7.80
2019,03,19,00,33,8.00
2019,03,19,00,34,8.10
2019,03,19,00,35,8.20
2019,03,19,00,36,8.20
2019,03,19,00,37,8.30
2019,03,19,00,38,8.50
2019,03,19,00,39,8.60
2019,03,19,00,40,8.80
2019,03,19,00,41,8.90
2019,03,19,00,42,9.00
2019,03,19,00,43,9.00
2019,03,19,00,44,8.90
2019,03,19,00,45,8.80
2019,03,19,00,46,8.70
2019,03,19,00,47,8.70
2019,03,19,00,48,8.70
2019,03,19,00,49,8.70
2019,03,19,00,50,8.70
2019,03,19,00,51,8.80
2019,03,19,00,52,8.90
2019,03,19,00,53,9.10
2019,03,19,00,54,9.40
2019,03,19,00,55,9.60
2019,03,19,00,56,9.80
2019,03,19,00,57,9.90
2019,03,19,00,58,10.10
2019,03,19,00,59,10.20
2019,03,19,01,00,10.30
2019,03,19,01,01,10.30
2019,03,19,01,02,10.40
2019,03,19,01,03,10.30
2019,03,19,01,04,10.30
2019,03,19,01,05,10.20
2019,03,19,01,06,10.10
2019,03,19,01,07,10.00
2019,03,19,01,08,9.80
2019,03,19,01,09,9.60
2019,03,19,01,10,9.40
2019,03,19,01,11,9.20
2019,03,19,01,12,9.00
2019,03,19,01,13,8.90
2019,03,19,01,14,8.80
2019,03,19,01,15,8.70
2019,03,19,01,16,8.70
2019,03,19,01,17,8.70
2019,03,19,01,18,8.70
2019,03,19,01,19,8.70
2019,03,19,01,20,8.70
2019,03,19,01,21,8.60
2019,03,19,01,22,8.50
2019,03,19,01,23,8.40
2019,03,19,01,24,8.30
2019,03,19,01,25,8.20
2019,03,19,01,26,8.10
2019,03,19,01,27,8.00
2019,03,19,01,28,7.90
2019,03,19,01,29,7.90
2019,03,19,01,30,7.80
2019,03,19,01,31,7.80
2019,03,19,01,32,7.80
2019,03,19,01,33,7.70
2019,03,19,01,34,7.70
2019,03,19,01,35,7.60
2019,03,19,01,36,7.60
2019,03,19,01,37,7.50
2019,03,19,01,38,7.50
2019,03,19,01,39,7.50
2019,03,19,01,40,7.40
2019,03,19,01,41,7.40
2019,03,19,01,42,7.30
2019,03,19,01,43,7.30
2019,03,19,01,44,7.30
2019,03,19,01,45,7.30
2019,03,19,01,46,7.30
2019,03,19,01,47,7.30
2019,03,19,01,48,7.20
2019,03,19,01,49,7.10
2019,03,19,01,50,7.10
2019,03,19,01,51,7.00
2019,03,19,01,52,7.00
2019,03,19,01,53,7.00
2019,03,19,01,54,6.90
2019,03,19,01,55,6.90
2019,03,19,01,56,6.90
2019,03,19,01,57,7.00
2019,03,19,01,58,7.00
2019,03,19,01,59,7.00
2019,03,19,02,00,7.00
2019,03,19,02,01,7.00
2019,03,19,02,02,7.10
2019,03,19,02,03,7.10
2019,03,19,02,04,7.10
2019,03,19,02,05,7.20
2019,03,19,02,06,7.20
2019,03,19,02,07,7.20
2019,03,19,02,08,7.20
2019,03,19,02,09,7.20
2019,03,19,02,10,7.20
2019,03,19,02,11,7.20
2019,03,19,02,12,7.20
2019,03,19,02,13,7.10
2019,03,19,02,14,7.00
2019,03,19,02,15,7.00
2019,03,19,02,16,6.90
2019,03,19,02,17,6.90
2019,03,19,02,18,6.90
2019,03,19,02,19,6.90
2019,03,19,02,20,6.90
2019,03,19,02,21,6.90
2019,03,19,02,22,6.90
2019,03,19,02,23,6.90
2019,03,19,02,24,6.90
2019,03,19,02,25,6.90
2019,03,19,02,26,6.90
2019,03,19,02,27,6.90
2019,03,19,02,28,6.80
2019,03,19,02,29,6.80
2019,03,19,02,30,6.80
2019,03,19,02,31,6.90
2019,03,19,02,32,7.00
2019,03,19,02,33,7.00
2019,03,19,02,34,7.00
2019,03,19,02,35,7.00
2019,03,19,02,36,7.00
2019,03,19,02,37,7.00
2019,03,19,02,38,6.90
2019,03,19,02,39,6.90
2019,03,19,02,40,6.80
2019,03,19,02,41,6.80
2019,03,19,02,42,6.80
2019,03,19,02,43,6.80
2019,03,19,02,44,6.70
2019,03,19,02,45,6.60
2019,03,19,02,46,6.60
2019,03,19,02,47,6.60
2019,03,19,02,48,6.60
2019,03,19,02,49,6.60
2019,03,19,02,50,6.60
2019,03,19,02,51,6.60
2019,03,19,02,52,6.60
2019,03,19,02,53,6.60
2019,03,19,02,54,6.60
2019,03,19,02,55,6.60
2019,03,19,02,56,6.60
2019,03,19,02,57,6.70
2019,03,19,02,58,6.70
2019,03,19,02,59,6.70
2019,03,19,03,00,6.80
2019,03,19,03,01,7.10
2019,03,19,03,02,7.30
2019,03,19,03,03,7.40
2019,03,19,03,04,7.40
2019,03,19,03,05,7.30
2019,03,19,03,06,7.20
2019,03,19,03,07,7.20
2019,03,19,03,08,7.10
2019,03,19,03,09,7.10
2019,03,19,03,10,7.00
2019,03,19,03,11,7.00
2019,03,19,03,12,6.90
2019,03,19,03,13,6.90
2019,03,19,03,14,6.80
2019,03,19,03,15,6.80
2019,03,19,03,16,6.80
2019,03,19,03,17,6.80
2019,03,19,03,18,6.80
2019,03,19,03,19,6.80
2019,03,19,03,20,6.80
2019,03,19,03,21,6.80
2019,03,19,03,22,6.90
2019,03,19,03,23,6.90
2019,03,19,03,24,7.00
2019,03,19,03,25,7.00
2019,03,19,03,26,7.10
2019,03,19,03,27,7.10
2019,03,19,03,28,7.20
2019,03,19,03,29,7.20
2019,03,19,03,30,7.20
2019,03,19,03,31,7.30
2019,03,19,03,32,7.30
2019,03,19,03,33,7.20
2019,03,19,03,34,7.10
2019,03,19,03,35,7.10
2019,03,19,03,36,7.10
2019,03,19,03,37,7.10
2019,03,19,03,38,7.00
2019,03,19,03,39,7.00
2019,03,19,03,40,6.90
2019,03,19,03,41,6.90
2019,03,19,03,42,6.80
2019,03,19,03,43,6.80
2019,03,19,03,44,6.80
2019,03,19,03,45,6.70
2019,03,19,03,46,6.70
2019,03,19,03,47,6.60
2019,03,19,03,48,6.70
2019,03,19,03,49,6.70
2019,03,19,03,50,6.70
2019,03,19,03,51,6.70
2019,03,19,03,52,6.80
2019,03,19,03,53,6.80
2019,03,19,03,54,6.80
2019,03,19,03,55,6.80
2019,03,19,03,56,6.80
2019,03,19,03,57,6.80
2019,03,19,03,58,6.80
2019,03,19,03,59,6.80
2019,03,19,04,00,6.80
2019,03,19,04,01,6.80
2019,03,19,04,02,6.70
2019,03,19,04,03,6.70
2019,03,19,04,04,6.70
2019,03,19,04,05,6.60
2019,03,19,04,06,6.60
2019,03,19,04,07,6.60
2019,03,19,04,08,6.60
2019,03,19,04,09,6.60
2019,03,19,04,10,6.60
2019,03,19,04,11,6.60
2019,03,19,04,12,6.60
2019,03,19,04,13,6.60
2019,03,19,04,14,6.50
2019,03,19,04,15,6.50
2019,03,19,04,16,6.60
2019,03,19,04,17,6.60
2019,03,19,04,18,6.60
2019,03,19,04,19,6.60
2019,03,19,04,20,6.60
2019,03,19,04,21,6.60
2019,03,19,04,22,6.60
2019,03,19,04,23,6.60
2019,03,19,04,24,6.60
2019,03,19,04,25,6.60
2019,03,19,04,26,6.50
2019,03,19,04,27,6.40
2019,03,19,04,28,6.40
2019,03,19,04,29,6.30
2019,03,19,04,30,6.30
2019,03,19,04,31,6.20
2019,03,19,04,32,6.20
2019,03,19,04,33,6.20
2019,03,19,04,34,6.20
2019,03,19,04,35,6.20
2019,03,19,04,36,6.10
2019,03,19,04,37,6.10
2019,03,19,04,38,6.10
2019,03,19,04,39,6.00
2019,03,19,04,40,6.00
2019,03,19,04,41,5.90
2019,03,19,04,42,5.90
2019,03,19,04,43,5.90
2019,03,19,04,44,5.90
2019,03,19,04,45,6.00
2019,03,19,04,46,6.00
2019,03,19,04,47,6.00
2019,03,19,04,48,6.00
2019,03,19,04,49,6.00
2019,03,19,04,50,5.90
2019,03,19,04,51,5.80
2019,03,19,04,52,5.70
2019,03,19,04,53,5.70
2019,03,19,04,54,5.70
2019,03,19,04,55,5.60
2019,03,19,04,56,5.60
2019,03,19,04,57,5.50
2019,03,19,04,58,5.50
2019,03,19,04,59,5.40
2019,03,19,05,00,5.40
2019,03,19,05,01,5.40
2019,03,19,05,02,5.50
2019,03,19,05,03,5.50
2019,03,19,05,04,5.50
2019,03,19,05,05,5.50
2019,03,19,05,06,5.50
2019,03,19,05,07,5.50
2019,03,19,05,08,5.50
2019,03,19,05,09,5.40
2019,03,19,05,10,5.40
2019,03,19,05,11,5.40
2019,03,19,05,12,5.30
2019,03,19,05,13,5.30
2019,03,19,05,14,5.30
2019,03,19,05,15,5.30
2019,03,19,05,16,5.30
2019,03,19,05,17,5.30
2019,03,19,05,18,5.30
2019,03,19,05,19,5.30
2019,03,19,05,20,5.30
2019,03,19,05,21,5.30
2019,03,19,05,22,5.30
2019,03,19,05,23,5.30
2019,03,19,05,24,5.30
2019,03,19,05,25,5.30
2019,03,19,05,26,5.30
2019,03,19,05,27,5.30
2019,03,19,05,28,5.30
2019,03,19,05,29,5.30
2019,03,19,05,30,5.20
2019,03,19,05,31,5.10
2019,03,19,05,32,5.10
2019,03,19,05,33,5.10
2019,03,19,05,34,5.10
2019,03,19,05,35,5.00
2019,03,19,05,36,4.90
2019,03,19,05,37,4.90
2019,03,19,05,38,4.90
2019,03,19,05,39,4.90
2019,03,19,05,40,4.80
2019,03,19,05,41,4.80
2019,03,19,05,42,4.80
2019,03,19,05,43,4.80
2019,03,19,05,44,4.80
2019,03,19,05,45,4.80
2019,03,19,05,46,4.80
2019,03,19,05,47,4.80
2019,03,19,05,48,4.70
2019,03,19,05,49,4.70
2019,03,19,05,50,4.70
2019,03,19,05,51,4.60
2019,03,19,05,52,4.60
2019,03,19,05,53,4.60
2019,03,19,05,54,4.60
2019,03,19,05,55,4.60
2019,03,19,05,56,4.60
2019,03,19,05,57,4.60
2019,03,19,05,58,4.60
2019,03,19,05,59,4.60
2019,03,19,06,00,4.60
2019,03,19,06,01,4.60
2019,03,19,06,02,4.70
2019,03,19,06,03,4.70
2019,03,19,06,04,4.70
2019,03,19,06,05,4.70
2019,03,19,06,06,4.70
2019,03,19,06,07,4.70
2019,03,19,06,08,4.70
2019,03,19,06,09,4.60
2019,03,19,06,10,4.60
2019,03,19,06,11,4.60
2019,03,19,06,12,4.60
2019,03,19,06,13,4.60
2019,03,19,06,14,4.70
2019,03,19,06,15,4.70
2019,03,19,06,16,4.70
2019,03,19,06,17,4.70
2019,03,19,06,18,4.70
2019,03,19,06,19,4.70
2019,03,19,06,20,4.70
2019,03,19,06,21,4.70
2019,03,19,06,22,4.80
2019,03,19,06,23,4.90
2019,03,19,06,24,4.90
2019,03,19,06,25,4.90
2019,03,19,06,26,4.90
2019,03,19,06,27,4.90
2019,03,19,06,28,5.00
2019,03,19,06,29,4.90
2019,03,19,06,30,4.90
2019,03,19,06,31,4.90
2019,03,19,06,32,4.90
2019,03,19,06,33,4.90
2019,03,19,06,34,4.90
2019,03,19,06,35,4.90
2019,03,19,06,36,4.90
2019,03,19,06,37,4.90
2019,03,19,06,38,4.80
2019,03,19,06,39,4.80
2019,03,19,06,40,4.80
2019,03,19,06,41,4.80
2019,03,19,06,42,4.70
2019,03,19,06,43,4.70
2019,03,19,06,44,4.60
2019,03,19,06,45,4.60
2019,03,19,06,46,4.60
2019,03,19,06,47,4.60
2019,03,19,06,48,4.60
2019,03,19,06,49,4.60
2019,03,19,06,50,4.60
2019,03,19,06,51,4.50
2019,03,19,06,52,4.50
2019,03,19,06,53,4.50
2019,03,19,06,54,4.50
2019,03,19,06,55,4.50
2019,03,19,06,56,4.50
2019,03,19,06,57,4.50
2019,03,19,06,58,4.50
2019,03,19,06,59,4.40
2019,03,19,07,00,4.40
2019,03,19,07,01,4.40
2019,03,19,07,02,4.40
2019,03,19,07,03,4.40
2019,03,19,07,04,4.40
2019,03,19,07,05,4.40
2019,03,19,07,06,4.40
2019,03,19,07,07,4.50
2019,03,19,07,08,4.50
2019,03,19,07,09,4.50
2019,03,19,07,10,4.50
2019,03,19,07,11,4.50
2019,03,19,07,12,4.50
2019,03,19,07,13,4.50
2019,03,19,07,14,4.50
2019,03,19,07,15,4.40
2019,03,19,07,16,4.40
2019,03,19,07,17,4.40
2019,03,19,07,18,4.40
2019,03,19,07,19,4.40
2019,03,19,07,20,4.30
2019,03,19,07,21,4.30
2019,03,19,07,22,4.40
2019,03,19,07,23,4.40
2019,03,19,07,24,4.30
2019,03,19,07,25,4.30
2019,03,19,07,26,4.30
2019,03,19,07,27,4.30
2019,03,19,07,28,4.30
2019,03,19,07,29,4.30
2019,03,19,07,30,4.30
2019,03,19,07,31,4.30
2019,03,19,07,32,4.40
2019,03,19,07,33,4.40
2019,03,19,07,34,4.40
2019,03,19,07,35,4.50
2019,03,19,07,36,4.50
2019,03,19,07,37,4.50
2019,03,19,07,38,4.60
2019,03,19,07,39,4.60
2019,03,19,07,40,4.60
2019,03,19,07,41,4.60
2019,03,19,07,42,4.60
2019,03,19,07,43,4.60
2019,03,19,07,44,4.70
2019,03,19,07,45,4.70
2019,03,19,07,46,4.70
2019,03,19,07,47,4.70
2019,03,19,07,48,4.70
2019,03,19,07,49,4.70
2019,03,19,07,50,4.70
2019,03,19,07,51,4.70
2019,03,19,07,52,4.70
2019,03,19,07,53,4.80
2019,03,19,07,54,4.80
2019,03,19,07,55,4.80
2019,03,19,07,56,4.80
2019,03,19,07,57,4.70
2019,03,19,07,58,4.70
2019,03,19,07,59,4.70
2019,03,19,08,00,4.70
2019,03,19,08,01,4.70
2019,03,19,08,02,4.60
2019,03,19,08,03,4.60
2019,03,19,08,04,4.70
2019,03,19,08,05,4.70
2019,03,19,08,06,4.80
2019,03,19,08,07,4.80
2019,03,19,08,08,4.90
2019,03,19,08,09,4.90
2019,03,19,08,10,5.00
2019,03,19,08,11,5.10
2019,03,19,08,12,5.10
2019,03,19,08,13,5.20
2019,03,19,08,14,5.30
2019,03,19,08,15,5.30
2019,03,19,08,16,5.30
2019,03,19,08,17,5.40
2019,03,19,08,18,5.50
2019,03,19,08,19,5.50
2019,03,19,08,20,5.60
2019,03,19,08,21,5.70
2019,03,19,08,22,5.70
2019,03,19,08,23,5.80
2019,03,19,08,24,5.90
2019,03,19,08,25,6.00
2019,03,19,08,26,6.00
2019,03,19,08,27,6.20
2019,03,19,08,28,6.30
2019,03,19,08,29,6.40
2019,03,19,08,30,6.50
2019,03,19,08,31,6.60
2019,03,19,08,32,6.70
2019,03,19,08,33,6.80
2019,03,19,08,34,6.90
2019,03,19,08,35,7.00
2019,03,19,08,36,7.20
2019,03,19,08,37,7.30
2019,03,19,08,38,7.40
2019,03,19,08,39,7.50
2019,03,19,08,40,7.70
2019,03,19,08,41,7.80
2019,03,19,08,42,7.90
2019,03,19,08,43,8.00
2019,03,19,08,44,8.10
2019,03,19,08,45,8.20
2019,03,19,08,46,8.20
2019,03,19,08,47,8.40
2019,03,19,08,48,8.50
2019,03,19,08,49,8.50
2019,03,19,08,50,8.60
2019,03,19,08,51,8.70
2019,03,19,08,52,8.80
2019,03,19,08,53,8.90
2019,03,19,08,54,9.00
2019,03,19,08,55,9.00
2019,03,19,08,56,9.20
2019,03,19,08,57,9.20
2019,03,19,08,58,9.20
2019,03,19,08,59,9.30
2019,03,19,09,00,9.40
2019,03,19,09,01,9.40
2019,03,19,09,02,9.50
2019,03,19,09,03,9.50
2019,03,19,09,04,9.60
2019,03,19,09,05,9.70
2019,03,19,09,06,9.70
2019,03,19,09,07,9.80
2019,03,19,09,08,9.90
2019,03,19,09,09,9.90
2019,03,19,09,10,10.10
2019,03,19,09,11,10.10
2019,03,19,09,12,10.20
2019,03,19,09,13,10.30
2019,03,19,09,14,10.40
2019,03,19,09,15,10.50
2019,03,19,09,16,10.60
2019,03,19,09,17,10.60
2019,03,19,09,18,10.80
2019,03,19,09,19,10.90
2019,03,19,09,20,11.10
2019,03,19,09,21,11.30
2019,03,19,09,22,11.50
2019,03,19,09,23,11.70
2019,03,19,09,24,11.90
2019,03,19,09,25,12.10
2019,03,19,09,26,12.40
2019,03,19,09,27,12.60
2019,03,19,09,28,12.80
2019,03,19,09,29,13.00
2019,03,19,09,30,13.20
2019,03,19,09,31,13.30
2019,03,19,09,32,13.40
2019,03,19,09,33,13.50
2019,03,19,09,34,13.60
2019,03,19,09,35,13.70
2019,03,19,09,36,13.70
2019,03,19,09,37,13.80
2019,03,19,09,38,13.90
2019,03,19,09,39,13.90
2019,03,19,09,40,14.00
2019,03,19,09,41,14.00
2019,03,19,09,42,14.10
2019,03,19,09,43,14.20
2019,03,19,09,44,14.20
2019,03,19,09,45,14.20
2019,03,19,09,46,14.30
2019,03,19,09,47,14.30
2019,03,19,09,48,14.40
2019,03,19,09,49,14.40
2019,03,19,09,50,14.50
2019,03,19,09,51,14.50
2019,03,19,09,52,14.60
2019,03,19,09,53,14.60
2019,03,19,09,54,14.70
2019,03,19,09,55,14.70
2019,03,19,09,56,14.80
2019,03,19,09,57,14.80
2019,03,19,09,58,14.80
2019,03,19,09,59,14.80
2019,03,19,10,00,14.80
2019,03,19,10,01,14.90
2019,03,19,10,02,14.90
2019,03,19,10,03,14.80
2019,03,19,10,04,14.80
2019,03,19,10,05,14.80
2019,03,19,10,06,14.80
2019,03,19,10,07,14.80
2019,03,19,10,08,14.90
2019,03,19,10,09,14.90
2019,03,19,10,10,15.00
2019,03,19,10,11,15.10
2019,03,19,10,12,15.10
2019,03,19,10,13,15.20
2019,03,19,10,14,15.20
2019,03,19,10,15,15.30
2019,03,19,10,16,15.30
2019,03,19,10,17,15.40
2019,03,19,10,18,15.50
2019,03,19,10,19,15.50
2019,03,19,10,20,15.60
2019,03,19,10,21,15.60
2019,03,19,10,22,15.70
2019,03,19,10,23,15.80
2019,03,19,10,24,15.80
2019,03,19,10,25,15.80
2019,03,19,10,26,15.80
2019,03,19,10,27,15.80
2019,03,19,10,28,15.80
2019,03,19,10,29,15.80
2019,03,19,10,30,15.80
2019,03,19,10,31,15.90
2019,03,19,10,32,15.90
2019,03,19,10,33,16.00
2019,03,19,10,34,16.10
2019,03,19,10,35,16.10
2019,03,19,10,36,16.10
2019,03,19,10,37,16.10
2019,03,19,10,38,16.10
2019,03,19,10,39,16.10
2019,03,19,10,40,16.10
2019,03,19,10,41,16.10
2019,03,19,10,42,16.10
2019,03,19,10,43,16.10
2019,03,19,10,44,16.20
2019,03,19,10,45,16.20
2019,03,19,10,46,16.20
2019,03,19,10,47,16.30
2019,03,19,10,48,16.30
2019,03,19,10,49,16.40
2019,03,19,10,50,16.30
2019,03,19,10,51,16.40
2019,03,19,10,52,16.40
2019,03,19,10,53,16.40
2019,03,19,10,54,16.40
2019,03,19,10,55,16.50
2019,03,19,10,56,16.60
2019,03,19,10,57,16.60
2019,03,19,10,58,16.60
2019,03,19,10,59,16.70
2019,03,19,11,00,16.70
2019,03,19,11,01,16.70
2019,03,19,11,02,16.70
2019,03,19,11,03,16.80
2019,03,19,11,04,16.90
2019,03,19,11,05,16.80
2019,03,19,11,06,16.80
2019,03,19,11,07,16.70
2019,03,19,11,08,16.60
2019,03,19,11,09,16.60
2019,03,19,11,10,16.50
2019,03,19,11,11,16.40
2019,03,19,11,12,16.40
2019,03,19,11,13,16.40
2019,03,19,11,14,16.40
2019,03,19,11,15,16.60
2019,03,19,11,16,16.60
2019,03,19,11,17,16.70
2019,03,19,11,18,16.70
2019,03,19,11,19,16.70
2019,03,19,11,20,16.70
2019,03,19,11,21,16.70
2019,03,19,11,22,16.70
2019,03,19,11,23,16.70
2019,03,19,11,24,16.70
2019,03,19,11,25,16.70
2019,03,19,11,26,16.70
2019,03,19,11,27,16.70
2019,03,19,11,28,16.80
2019,03,19,11,29,16.80
2019,03,19,11,30,16.80
2019,03,19,11,31,16.80
2019,03,19,11,32,16.80
2019,03,19,11,33,16.90
2019,03,19,11,34,17.00
2019,03,19,11,35,17.00
2019,03,19,11,36,17.10
2019,03,19,11,37,17.20
2019,03,19,11,38,17.20
2019,03,19,11,39,17.20
2019,03,19,11,40,17.30
2019,03,19,11,41,17.30
2019,03,19,11,42,17.40
2019,03,19,11,43,17.50
2019,03,19,11,44,17.60
2019,03,19,11,45,17.70
2019,03,19,11,46,17.80
2019,03,19,11,47,17.80
2019,03,19,11,48,17.80
2019,03,19,11,49,17.80
2019,03,19,11,50,17.90
2019,03,19,11,51,17.90
2019,03,19,11,52,18.00
2019,03,19,11,53,18.10
2019,03,19,11,54,18.10
2019,03,19,11,55,18.20
2019,03,19,11,56,18.20
2019,03,19,11,57,18.20
2019,03,19,11,58,18.20
2019,03,19,11,59,18.20
2019,03,19,12,00,18.20
2019,03,19,12,01,18.20
2019,03,19,12,02,18.20
2019,03,19,12,03,18.20
2019,03,19,12,04,18.30
2019,03,19,12,05,18.30
2019,03,19,12,06,18.20
2019,03,19,12,07,18.20
2019,03,19,12,08,18.30
2019,03,19,12,09,18.40
2019,03,19,12,10,18.50
2019,03,19,12,11,18.50
2019,03,19,12,12,18.60
2019,03,19,12,13,18.50
2019,03,19,12,14,18.50
2019,03,19,12,15,18.50
2019,03,19,12,16,18.50
2019,03,19,12,17,18.50
2019,03,19,12,18,18.40
2019,03,19,12,19,18.30
2019,03,19,12,20,18.30
2019,03,19,12,21,18.20
2019,03,19,12,22,18.20
2019,03,19,12,23,18.10
2019,03,19,12,24,17.90
2019,03,19,12,25,17.90
2019,03,19,12,26,17.90
2019,03,19,12,27,18.10
2019,03,19,12,28,18.10
2019,03,19,12,29,18.10
2019,03,19,12,30,18.10
2019,03,19,12,31,18.00
2019,03,19,12,32,18.00
2019,03,19,12,33,18.10
2019,03,19,12,34,18.10
2019,03,19,12,35,18.10
2019,03,19,12,36,18.20
2019,03,19,12,37,18.20
2019,03,19,12,38,18.20
2019,03,19,12,39,18.30
2019,03,19,12,40,18.30
2019,03,19,12,41,18.40
2019,03,19,12,42,18.40
2019,03,19,12,43,18.50
2019,03,19,12,44,18.60
2019,03,19,12,45,18.70
2019,03,19,12,46,18.80
2019,03,19,12,47,18.80
2019,03,19,12,48,18.80
2019,03,19,12,49,18.80
2019,03,19,12,50,18.90
2019,03,19,12,51,18.90
2019,03,19,12,52,18.90
2019,03,19,12,53,18.90
2019,03,19,12,54,19.00
2019,03,19,12,55,19.10
2019,03,19,12,56,19.10
2019,03,19,12,57,19.10
2019,03,19,12,58,19.10
2019,03,19,12,59,19.10
2019,03,19,13,00,19.20
2019,03,19,13,01,19.20
2019,03,19,13,02,19.20
2019,03,19,13,03,19.10
2019,03,19,13,04,19.20
2019,03,19,13,05,19.20
2019,03,19,13,06,19.30
2019,03,19,13,07,19.40
2019,03,19,13,08,19.40
2019,03,19,13,09,19.60
2019,03,19,13,10,19.60
2019,03,19,13,11,19.80
2019,03,19,13,12,19.80
2019,03,19,13,13,19.80
2019,03,19,13,14,19.80
2019,03,19,13,15,19.70
2019,03,19,13,16,19.80
2019,03,19,13,17,19.90
2019,03,19,13,18,19.90
2019,03,19,13,19,19.90
2019,03,19,13,20,19.90
2019,03,19,13,21,19.90
2019,03,19,13,22,19.90
2019,03,19,13,23,19.90
2019,03,19,13,24,19.90
2019,03,19,13,25,19.90
2019,03,19,13,26,19.90
2019,03,19,13,27,19.90
2019,03,19,13,28,19.90
2019,03,19,13,29,19.90
2019,03,19,13,30,19.90
2019,03,19,13,31,19.90
2019,03,19,13,32,19.90
2019,03,19,13,33,19.90
2019,03,19,13,34,19.90
2019,03,19,13,35,19.90
2019,03,19,13,36,19.90
2019,03,19,13,37,20.00
2019,03,19,13,38,20.10
2019,03,19,13,39,20.10
2019,03,19,13,40,20.20
2019,03,19,13,41,20.20
2019,03,19,13,42,20.20
2019,03,19,13,43,20.30
2019,03,19,13,44,20.40
2019,03,19,13,45,20.40
2019,03,19,13,46,20.50
2019,03,19,13,47,20.50
2019,03,19,13,48,20.50
2019,03,19,13,49,20.60
2019,03,19,13,50,20.60
2019,03,19,13,51,20.70
2019,03,19,13,52,20.90
2019,03,19,13,53,20.90
2019,03,19,13,54,21.00
2019,03,19,13,55,20.90
2019,03,19,13,56,20.90
2019,03,19,13,57,20.80
2019,03,19,13,58,20.70
2019,03,19,13,59,20.70
2019,03,19,14,00,20.60
2019,03,19,14,01,20.70
2019,03,19,14,02,20.80
2019,03,19,14,03,20.80
2019,03,19,14,04,20.90
2019,03,19,14,05,20.90
2019,03,19,14,06,20.90
2019,03,19,14,07,20.90
2019,03,19,14,08,21.00
2019,03,19,14,09,21.00
2019,03,19,14,10,21.00
2019,03,19,14,11,21.10
2019,03,19,14,12,21.20
2019,03,19,14,13,21.20
2019,03,19,14,14,21.30
2019,03,19,14,15,21.30
2019,03,19,14,16,21.30
2019,03,19,14,17,21.30
2019,03,19,14,18,21.30
2019,03,19,14,19,21.30
2019,03,19,14,20,21.30
2019,03,19,14,21,21.30
2019,03,19,14,22,21.30
2019,03,19,14,23,21.30
2019,03,19,14,24,21.30
2019,03,19,14,25,21.40
2019,03,19,14,26,21.50
2019,03,19,14,27,21.60
2019,03,19,14,28,21.70
2019,03,19,14,29,21.70
2019,03,19,14,30,21.70
2019,03,19,14,31,21.80
2019,03,19,14,32,21.80
2019,03,19,14,33,21.80
2019,03,19,14,34,21.90
2019,03,19,14,35,21.90
2019,03,19,14,36,21.90
2019,03,19,14,37,21.80
2019,03,19,14,38,21.80
2019,03,19,14,39,21.80
2019,03,19,14,40,21.90
2019,03,19,14,41,22.00
2019,03,19,14,42,22.10
2019,03,19,14,43,22.10
2019,03,19,14,44,22.20
2019,03,19,14,45,22.30
2019,03,19,14,46,22.30
2019,03,19,14,47,22.30
2019,03,19,14,48,22.30
2019,03,19,14,49,22.20
2019,03,19,14,50,22.00
2019,03,19,14,51,22.00
2019,03,19,14,52,21.90
2019,03,19,14,53,21.90
2019,03,19,14,54,21.80
2019,03,19,14,55,21.80
2019,03,19,14,56,21.80
2019,03,19,14,57,21.80
2019,03,19,14,58,21.80
2019,03,19,14,59,21.80
2019,03,19,15,00,21.90
2019,03,19,15,01,22.00
2019,03,19,15,02,22.00
2019,03,19,15,03,21.90
2019,03,19,15,04,21.90
2019,03,19,15,05,22.00
2019,03,19,15,06,22.00
2019,03,19,15,07,22.00
2019,03,19,15,08,21.90
2019,03,19,15,09,21.90
2019,03,19,15,10,21.90
2019,03,19,15,11,22.00
2019,03,19,15,12,22.00
2019,03,19,15,13,22.00
2019,03,19,15,14,22.10
2019,03,19,15,15,22.10
2019,03,19,15,16,22.10
2019,03,19,15,17,22.00
2019,03,19,15,18,22.00
2019,03,19,15,19,21.90
2019,03,19,15,20,21.80
2019,03,19,15,21,21.80
2019,03,19,15,22,21.70
2019,03,19,15,23,21.70
2019,03,19,15,24,21.60
2019,03,19,15,25,21.60
2019,03,19,15,26,21.70
2019,03,19,15,27,21.70
2019,03,19,15,28,21.80
2019,03,19,15,29,21.90
2019,03,19,15,30,22.00
2019,03,19,15,31,22.00
2019,03,19,15,32,22.10
2019,03,19,15,33,22.10
2019,03,19,15,34,22.20
2019,03,19,15,35,22.20
2019,03,19,15,36,22.30
2019,03,19,15,37,22.30
2019,03,19,15,38,22.40
2019,03,19,15,39,22.40
2019,03,19,15,40,22.50
2019,03,19,15,41,22.50
2019,03,19,15,42,22.50
2019,03,19,15,43,22.50
2019,03,19,15,44,22.40
2019,03,19,15,45,22.40
2019,03,19,15,46,22.30
2019,03,19,15,47,22.30
2019,03,19,15,48,22.30
2019,03,19,15,49,22.30
2019,03,19,15,50,22.30
2019,03,19,15,51,22.30
2019,03,19,15,52,22.30
2019,03,19,15,53,22.30
2019,03,19,15,54,22.30
2019,03,19,15,55,22.40
2019,03,19,15,56,22.40
2019,03,19,15,57,22.40
2019,03,19,15,58,22.40
2019,03,19,15,59,22.50
2019,03,19,16,00,22.60
2019,03,19,16,01,22.60
2019,03,19,16,02,22.70
2019,03,19,16,03,22.80
2019,03,19,16,04,22.90
2019,03,19,16,05,22.90
2019,03,19,16,06,22.90
2019,03,19,16,07,22.90
2019,03,19,16,08,22.90
2019,03,19,16,09,22.80
2019,03,19,16,10,22.80
2019,03,19,16,11,22.70
2019,03,19,16,12,22.70
2019,03,19,16,13,22.70
2019,03,19,16,14,22.80
2019,03,19,16,15,22.70
2019,03,19,16,16,22.70
2019,03,19,16,17,22.70
2019,03,19,16,18,22.70
2019,03,19,16,19,22.60
2019,03,19,16,20,22.60
2019,03,19,16,21,22.60
2019,03,19,16,22,22.60
2019,03,19,16,23,22.70
2019,03,19,16,24,22.70
2019,03,19,16,25,22.70
2019,03,19,16,26,22.80
2019,03,19,16,27,22.80
2019,03,19,16,28,22.80
2019,03,19,16,29,22.80
2019,03,19,16,30,22.80
2019,03,19,16,31,22.90
2019,03,19,16,32,22.90
2019,03,19,16,33,22.80
2019,03,19,16,34,22.80
2019,03,19,16,35,22.70
2019,03,19,16,36,22.80
2019,03,19,16,37,22.80
2019,03,19,16,38,22.70
2019,03,19,16,39,22.60
2019,03,19,16,40,22.60
2019,03,19,16,41,22.60
2019,03,19,16,42,22.50
2019,03,19,16,43,22.60
2019,03,19,16,44,22.60
2019,03,19,16,45,22.60
2019,03,19,16,46,22.60
2019,03,19,16,47,22.60
2019,03,19,16,48,22.60
2019,03,19,16,49,22.60
2019,03,19,16,50,22.60
2019,03,19,16,51,22.70
2019,03,19,16,52,22.70
2019,03,19,16,53,22.70
2019,03,19,16,54,22.80
2019,03,19,16,55,22.80
2019,03,19,16,56,22.80
2019,03,19,16,57,22.80
2019,03,19,16,58,22.80
2019,03,19,16,59,22.80
2019,03,19,17,00,22.80
2019,03,19,17,01,22.80
2019,03,19,17,02,22.70
2019,03,19,17,03,22.70
2019,03,19,17,04,22.70
2019,03,19,17,05,22.60
2019,03,19,17,06,22.60
2019,03,19,17,07,22.60
2019,03,19,17,08,22.60
2019,03,19,17,09,22.50
2019,03,19,17,10,22.50
2019,03,19,17,11,22.50
2019,03,19,17,12,22.50
2019,03,19,17,13,22.50
2019,03,19,17,14,22.50
2019,03,19,17,15,22.50
2019,03,19,17,16,22.50
2019,03,19,17,17,22.50
2019,03,19,17,18,22.50
2019,03,19,17,19,22.50
2019,03,19,17,20,22.50
2019,03,19,17,21,22.50
2019,03,19,17,22,22.50
2019,03,19,17,23,22.60
2019,03,19,17,24,22.60
2019,03,19,17,25,22.60
2019,03,19,17,26,22.60
2019,03,19,17,27,22.60
2019,03,19,17,28,22.50
2019,03,19,17,29,22.50
2019,03,19,17,30,22.40
2019,03,19,17,31,22.40
2019,03,19,17,32,22.50
2019,03,19,17,33,22.50
2019,03,19,17,34,22.50
2019,03,19,17,35,22.50
2019,03,19,17,36,22.50
2019,03,19,17,37,22.40
2019,03,19,17,38,22.40
2019,03,19,17,39,22.40
2019,03,19,17,40,22.40
2019,03,19,17,41,22.40
2019,03,19,17,42,22.40